Flag for Switzerland Weather past 2 weeks in Kreuzlingen, Thurgau, Switzerland

Now
59 °F

Passing clouds.


Feels Like: 59 °F
Forecast: 48 / 70 °F
Wind: 1 mph from North

Location: Konstanz

Current Time: Sep 3, 2015 at 4:46:18 AM

Latest Report: Sep 3, 2015 at 4:00 AM


Visibility: 11 mi

Pressure: 29.94 "Hg

Humidity: 87%

Dew point: 55 °F

Location of KreuzlingenLocation

Historic Weather in Kreuzlingen — Graph

°F

Kreuzlingen temperature yesterday

Maximum temperature yesterday: 70 °F (at 2:00 PM)
Minimum temperature yesterday: 58 °F (at 5:00 AM)
Average temperature yesterday: 63 °F

Past Weeks' High & Low Weather Summary

 TemperatureHumidityPressure
High92 °F (Aug 29, 5:00 PM)97% (Aug 21, 6:00 AM)30.27 "Hg (Aug 21, 6:00 AM)
Low53 °F (Aug 26, 7:00 AM)27% (Aug 31, 4:00 PM)29.70 "Hg (Aug 24, 8:00 AM)
Average68 °F69%30.01 "Hg
* Reported Aug 19 3:00 AM — Sep 3 3:00 AM, Kreuzlingen, Weather by CustomWeather, © 2015

Note: Actual official high and low records may vary slightly from our data, if they occured in-between our weather recording intervals... More about our weather records

Advertising

Kreuzlingen weather history for previous 24 hours

 ConditionsComfort  
Time TempWeatherWind HumidityBarometerVisibility
3:00 AM
Thu, Sep 3
61 °FOvercast.1 mph82%29.95 "Hg14 mi
2:00 AM61 °FOvercast.1 mph81%29.96 "Hg16 mi
1:00 AM62 °FOvercast.1 mph79%29.96 "Hg16 mi
11:00 PM
Wed, Sep 2
62 °FOvercast.1 mph74%29.97 "Hg19 mi
10:00 PM64 °FOvercast.2 mph69%29.97 "Hg22 mi
9:00 PM64 °FPassing clouds.3 mph70%29.96 "Hg12 mi
8:00 PM66 °FOvercast.2 mph64%29.96 "Hg19 mi
7:00 PM68 °FOvercast.2 mph56%29.95 "Hg19 mi
6:00 PM68 °FOvercast.2 mph59%29.95 "Hg19 mi
5:00 PM69 °FOvercast.2 mph55%29.95 "Hg16 mi
4:00 PM69 °FOvercast.1 mph60%29.95 "Hg19 mi
3:00 PM69 °FOvercast.2 mph57%29.96 "Hg25 mi
2:00 PM70 °FPartly sunny.2 mph56%29.97 "Hg25 mi
1:00 PM67 °FOvercast.2 mph63%29.99 "Hg19 mi
12:00 PM66 °FOvercast.2 mph67%30.00 "Hg19 mi
11:00 AM64 °FOvercast.2 mph73%30.01 "Hg16 mi
10:00 AM63 °FOvercast.2 mph76%30.02 "Hg16 mi
9:00 AM61 °FOvercast.1 mph79%30.03 "Hg12 mi
8:00 AM60 °FOvercast.1 mph84%30.04 "Hg12 mi
7:00 AM59 °FOvercast.1 mph91%30.04 "Hg11 mi
6:00 AM58 °FOvercast.1 mph92%30.04 "Hg12 mi
5:00 AM58 °FOvercast.2 mph91%30.06 "Hg18 mi
4:00 AM58 °FOvercast.2 mph91%30.06 "Hg25 mi
Weather by CustomWeather, © 2015

See weather overviewHow to use our weather pages